DW5244 Weather Reports


Display with metric or nautical units.
time (UTC)temp
F
wind
direction
speed
MPH
gust
MPH
rain 1hr
in
rain 24hr
in
rain mn
in
humidity
%
barometer
mb
20260503184523 78 206 4.0 10.0 0.00 0.00 0.00 35 1022.4
20260503183017 77 215 9.0 13.0 0.00 0.00 0.00 35 1023.0
20260503181511 76 126 6.0 11.0 0.00 0.00 0.00 36 1023.5
20260503180008 75 185 6.0 12.0 0.00 0.00 0.00 38 1023.6
20260503174506 74 186 7.0 12.0 0.00 0.00 0.00 39 1023.8
20260503173003 74 190 10.0 14.0 0.00 0.00 0.00 40 1024.0
20260503171605 73 165 4.0 14.0 0.00 0.00 0.00 40 1024.2
20260503100109 59 349 6.0 13.0 0.00 0.00 0.00 59 1024.4
20260503081556 60 360 9.0 14.0 0.00 0.00 0.00 56 1025.0
20260503071543 60 360 8.0 16.0 0.00 0.00 0.00 56 1025.5
20260503060105 60 59 9.0 19.0 0.00 0.00 0.00 52 1025.5
20260503054552 61 79 11.0 18.0 0.00 0.00 0.00 51 1025.5
20260503053037 61 50 11.0 19.0 0.00 0.00 0.00 50 1025.5
20260503051525 61 64 11.0 20.0 0.00 0.00 0.00 50 1025.3
20260503050023 61 60 11.0 17.0 0.00 0.00 0.00 49 1025.3
20260503044524 62 69 8.0 15.0 0.00 0.00 0.00 48 1025.3
20260503043025 62 74 6.0 14.0 0.00 0.00 0.00 48 1025.1
20260503041523 62 161 8.0 17.0 0.00 0.00 0.00 47 1025.0
20260503040032 63 165 11.0 24.0 0.00 0.00 0.00 46 1024.4
20260503034521 63 166 14.0 21.0 0.00 0.00 0.00 45 1024.1
20260503033027 63 149 13.0 20.0 0.00 0.00 0.00 45 1024.4
20260503031520 63 173 12.0 17.0 0.00 0.00 0.00 44 1024.3
20260503030024 64 156 10.0 18.0 0.00 0.00 0.00 44 1023.8
20260503024519 64 185 10.0 23.0 0.00 0.00 0.00 43 1023.2
20260503023018 65 148 12.0 21.0 0.00 0.00 0.00 42 1023.0
20260503021518 65 182 11.0 18.0 0.00 0.00 0.00 42 1023.0
20260503020017 66 174 11.0 21.0 0.00 0.00 0.00 41 1023.0
20260503014516 67 360 11.0 17.0 0.00 0.00 0.00 40 1023.1
20260503013016 67 188 13.0 19.0 0.00 0.00 0.00 40 1022.7
20260503011521 68 160 11.0 19.0 0.00 0.00 0.00 39 1022.5
20260503010020 69 145 9.0 19.0 0.00 0.00 0.00 37 1022.4
20260503004517 70 160 8.0 17.0 0.00 0.00 0.00 37 1022.5
20260503003014 71 194 7.0 14.0 0.00 0.00 0.00 36 1022.5
20260503001513 71 139 7.0 17.0 0.00 0.00 0.00 36 1022.6
20260503000011 72 178 7.0 16.0 0.00 0.00 0.00 35 1022.5
20260502234522 72 144 8.0 19.0 0.00 0.00 0.00 34 1022.6
20260502233011 73 167 9.0 16.0 0.00 0.00 0.00 34 1022.5
20260502231510 74 160 8.0 17.0 0.00 0.00 0.00 33 1022.5
20260502230011 73 159 8.0 16.0 0.00 0.00 0.00 34 1022.5
20260502224509 74 112 8.0 15.0 0.00 0.00 0.00 33 1022.5
20260502223009 74 190 3.0 10.0 0.00 0.00 0.00 33 1022.5
20260502221508 74 181 2.0 15.0 0.00 0.00 0.00 34 1022.7
20260502220011 73 146 8.0 13.0 0.00 0.00 0.00 36 1022.9
20260502214517 73 164 4.0 15.0 0.00 0.00 0.00 37 1023.2
20260502213006 72 186 1.0 10.0 0.00 0.00 0.00 37 1023.6
20260502211512 72 185 3.0 16.0 0.00 0.00 0.00 36 1023.8
20260502210016 74 130 3.0 15.0 0.00 0.01 0.00 34 1024.0
20260502204509 73 156 2.0 8.0 0.00 0.01 0.00 37 1024.3
20260502203007 73 192 2.0 9.0 0.00 0.01 0.00 36 1024.7
20260502201504 73 93 8.0 14.0 0.00 0.01 0.00 36 1024.9
20260502200100 73 61 3.0 13.0 0.00 0.01 0.00 37 1025.1
20260502194559 71 61 10.0 14.0 0.00 0.01 0.00 37 1025.1
20260502193058 70 76 5.0 17.0 0.00 0.01 0.00 39 1025.3
20260502191558 72 200 5.0 14.0 0.00 0.01 0.00 36 1025.4
20260502190057 72 106 3.0 12.0 0.00 0.01 0.00 38 1025.5